Regional Weather Roundup
Issued by NWS

Home | Current Version | Previous Version | Text Only | Print | Product List | Glossary Off
Versions: 1 2 3 4 5 6 7 8 9 10 11 12 13 14 15 16 17 18 19 20 21 22 23 24 25 26 27 28 29 30 31 32 33 34 35 36 37 38 39 40 41 42 43 44 45 46 47 48 49 50

000
ASUS43 KMKX 020800
RWRWI

WISCONSIN REGIONAL WEATHER ROUNDUP
NATIONAL WEATHER SERVICE MILWAUKEE/SULLIVAN WI
300 AM CDT WED SEP 02 2015

NOTE: "FAIR" INDICATES FEW OR NO CLOUDS BELOW 12,000 FEET WITH NO
SIGNIFICANT WEATHER AND/OR OBSTRUCTIONS TO VISIBILITY.

WIZ001-002-006>008-014>016-023>028-020900-
NORTHWEST WISCONSIN

CITY           SKY/WX    TMP DP  RH WIND       PRES   REMARKS
SUPERIOR ARPT  LGT RAIN  68  67  98 E6        29.91S
ASHLAND        MOCLDY    66  66 100 CALM      29.94S FOG
HAYWARD        CLOUDY    70  69  97 CALM      29.94F FOG
SIREN          CLOUDY    74  72  93 CALM      29.93S
CUMBERLAND     CLOUDY    68  68 100 CALM      29.95S THUNDER FOG
RICE LAKE      CLOUDY    71  69  95 CALM      29.96R FOG
CHETEK         CLOUDY   N/A N/A N/A MISG      29.95S FOG
LADYSMITH      FOG       71  69  96 CALM      29.97F VSB 3/4
EAU CLAIRE     MOCLDY    73  70  90 S3        29.93S
MENOMONIE      CLOUDY    71  70  97 E3        29.93F FOG
NEW RICHMOND   CLOUDY    74  72  94 S3        29.93F
OSCEOLA        CLOUDY    74  74 100 CALM      29.95S
$$

WIZ003>005-009-010-017-018-020900-
NORTH CENTRAL WISCONSIN

CITY           SKY/WX    TMP DP  RH WIND       PRES   REMARKS
MANITOWISH WTR FOG       62  62 100 CALM      29.99R VSB<1/4
ARBOR VITAE    MOCLDY    67  65  95 CALM      29.99S
WOODRUFF       MOCLDY    67  65  95 CALM      29.99S
RHINELANDER    MOCLDY    68  66  93 CALM      30.00S FOG
EAGLE RIVER    FOG       63  63 100 CALM      29.99S VSB 3/4
LAND O LAKES   FOG       62  62 100 CALM      30.00S VSB 3/4
PHILLIPS       CLOUDY    69  68  99 CALM      29.97F
TOMAHAWK       MOCLDY    69  68  96 CALM      29.99S FOG
MEDFORD        PTCLDY    70  70 100 S3        29.98F FOG
MERRILL        FOG       65  65 100 CALM      29.98F VSB 1/4
$$

WIZ029-030-035-036-043>047-020900-
CENTRAL WISCONSIN

CITY           SKY/WX    TMP DP  RH WIND       PRES   REMARKS
WAUSAU         PTCLDY    72  71  97 S3        29.96F FOG
MOSINEE        PTCLDY    70  70 100 SW3       29.99S FOG
MARSHFIELD     FOG       70  67  90 CALM      29.97F VSB 1/4
STEVENS POINT  PTCLDY    69  69  99 CALM      29.98F FOG
WAUPACA        CLEAR     71  71  98 CALM      29.97F FOG
WAUTOMA        PTCLDY    70  70 100 CALM      29.98F FOG
WISC RAPIDS    CLEAR     71  69  93 S3        29.99S FOG
CAMP DOUGLAS   CLEAR     66  66 100 SE1       29.97S FOG
$$

WIZ011>013-019>022-031-037>040-048>050-020900-
NORTHEAST WISCONSIN

CITY           SKY/WX    TMP DP  RH WIND       PRES   REMARKS
ANTIGO         MOCLDY    68  68 100 CALM      29.99F FOG
SHAWANO        PTCLDY    73  71  93 CALM      29.96F FOG
OCONTO         PTCLDY    68  68 100 CALM      29.94S
STURGEON BAY   PTCLDY    73  70  88 SW5       29.97S
GREEN BAY      PTCLDY    70  69  97 S3        29.96S FOG
MANITOWOC      NOT AVBL
APPLETON       PTCLDY    70  70 100 CALM      29.96S FOG
CLINTONVILLE   FOG       68  66  94 CALM      29.96F VSB 3/4
OSHKOSH        PTCLDY    73  70  90 S6        29.97S FOG
$$

WIZ032>034-041-042-053>061-020900-
SOUTHWEST WISCONSIN

CITY           SKY/WX    TMP DP  RH WIND       PRES   REMARKS
LA CROSSE      PTCLDY    76  72  87 SE5       29.94F
SPARTA         CLEAR     67  65  94 CALM      29.97F
VIROQUA          N/A     73  73 100 SW7       30.00S
BOSCOBEL       FOG       69  68  96 CALM      29.98S VSB 1/4
PRAIRIE DU CHI CLEAR     74  67  78 CALM      29.98S
PLATTEVILLE    CLEAR     70  69  96 S6        30.00F
$$

WIZ056-057-062-063-064-067-068-020900-
SOUTH CENTRAL WISCONSIN

CITY           SKY/WX    TMP DP  RH WIND       PRES   REMARKS
REEDSBURG      PTCLDY    75  71  89 W6        29.97F
BARABOO/DELLS  PTCLDY    74  69  83 W5        29.98F
LONE ROCK      NOT AVBL
MINERAL POINT  CLEAR     73  70  88 SW3       30.01F
MADISON        MOCLDY    75  69  81 SW3       29.99S
MIDDLETON      PTCLDY    74  70  86 CALM      30.00S
WATERTOWN      MOCLDY    68  68 100 CALM      30.00S FOG
MONROE         CLEAR     70  68  94 SW8       30.01S
JANESVILLE     PTCLDY    72  70  94 SW5       30.00S
$$

WIZ051-052-058>065-066-070>072-020900-
SOUTHEAST WISCONSIN

CITY           SKY/WX    TMP DP  RH WIND       PRES   REMARKS
MILWAUKEE      PTCLDY    75  69  81 SW6       29.99F
WAUKESHA       CLEAR     70  68  94 SW3       30.02S
MILWAUKEE/TIMM CLEAR     72  66  83 SW3       30.01S
RACINE         PTCLDY    75  69  81 SW6       30.01F
BURLINGTON     PTCLDY    66  65  97 CALM      30.00F FOG
KENOSHA        CLEAR     74  69  85 SW9       30.01S
FOND DU LAC    PTCLDY    73  71  93 S5        29.98S
SHEBOYGAN      CLEAR     72  70  93 CALM      29.97F
WEST BEND      PTCLDY    70  68  94 CALM      30.00S
JUNEAU         PTCLDY    71  69  95 S3        30.01S FOG
$$

LSZ147-162-020900-
LAKE SUPERIOR

STATION/POSITION TIME  TEMP    WIND        PRES    WAVE
                       AIR SEA DIR/SP/G            HT/PER
                 (UTC) (F)     (DEG/KT/KT) (MB)    (FT/S)
W MID LAKE BUOY  0650   58 56   70/  4/  4 1013.7S   0
DEVILS ISLAND    0700   68      70/  2/  3 1013.5R
PORT WING        0700   64      50/  3/  5 1013.5
SAXON HARBOR     0700   67        CALM     1013.2S
$$

LMZ867-665-643>646-020900-
LAKE MICHIGAN

STATION/POSITION TIME  TEMP    WIND        PRES    WAVE
                       AIR SEA DIR/SP/G            HT/PER
                 (UTC) (F)     (DEG/KT/KT) (MB)    (FT/S)
CHAMBERS ISLAND  0700   73     190/  5/  9 1013.9F
S GREEN BAY BUOY 0730   70 67  210/  8/  8 1015.6F
N MID LAKE BUOY  0650   66 65  200/ 10/ 12 1013.6F   2/ 4
NORTHPORT PIER   0700   65      CALM  /  2 1013.9F
SISTER BAY       0719   71        CALM       N/A
ALGOMA LAKESHORE 0714             CALM       N/A
KEWAUNEE LAKESHO 0700   54     160/  3/  4 1013.5F
SHEBOYGAN LAKESH 0700   69     170/  5/  5 1015.0F
PORT WASHINGTON  0700   58      CALM  /  1 1015.9F
ATWATER BUOY     0700   57 50  140/  4/  6 1016.9F
MILWAUKEE LAKESH 0710   77     240/ 11/ 14   N/A
S MID LAKE BUOY  0650   72 70  190/ 10/ 10 1015.6F
KENOSHA   LAKESH 0700   78     230/  7/ 11 1015.6F
$$

TC  - TEMPERATURE IN CELSIUS
VSB - VISIBILITY IN STATUTE MILES
WCI - WIND CHILL INDEX
HX  - HEAT INDEX



USA.gov is the U.S. government's official web portal to all federal, state and local government web resources and services.